カタログに戻る

ONEWEB-0101

運用中通信PO
NORAD 48049·PAYLOAD·🇬🇧 United Kingdom

打ち上げ Mar 25, 2021 から Vostochny Cosmodrome

Loading…

次のパス (今後24時間)

TLE

最新Source: CelesTrak SupGP

元期: Sep 14, 2026, 17:41 UTC

1 48049C 21025H   26257.73733056 -.00001045  00000+0 -28642-2 0  2573
2 48049  87.8922 302.4076 0001831  92.4564 309.7950 13.13473720    13

AllMySatでONEWEB-0101をリアルタイム追跡

Download on the App Store